Location: Trebic
(49.2170°N, 15.8830°E)
Time: 02:24:20
(UTC+02:00)

Transit 2A Rocket - Pass Details

Date: 27 July 2019
Orbit: 590 x 913 km, 66.7° (Epoch: 22 August)

Event Time Altitude Azimuth Distance (km) Brightness Sun altitude
Rises 01:24:23 0° 169° (SSE) 3,513 - -21.3°
Reaches altitude 10° 01:27:33 10° 153° (SSE) 2,552 - -21.2°
Exits shadow 01:30:16 19° 128° (SE) 1,987 6.8 -21.2°
Maximum altitude 01:31:44 20° 108° (ESE) 1,881 6.9 -21.2°
Drops below altitude 10° 01:35:47 10° 63° (ENE) 2,450 8.1 -21.1°
Sets 01:38:44 0° 47° (NE) 3,331 9.1 -21.0°
